Weather History for KJSO - December, 2012

Change the Weather History Date:

Saturday, December 15, 2012

  Actual Average (KTYR) Record (KTYR)
Temperature  
Mean Temperature 63 °F 48 °F  
Max Temperature 68 °F 57 °F 79 °F (1975)
Min Temperature 58 °F 39 °F 14 °F (1958)
Degree Days  
Heating Degree Days 2 17  
Month to date heating degree days 242  
Since 1 July heating degree days 616  
Cooling Degree Days 0 0  
Month to date cooling degree days 0  
Year to date cooling degree days 2411  
Growing Degree Days 13 (Base 50)    
Moisture  
Dew Point 55 °F    
Average Humidity 78    
Maximum Humidity 99    
Minimum Humidity 54    
Precipitation  
Precipitation 0.31 in 0.14 in 3.31 in (1992)
Month to date precipitation 1.98  
Year to date precipitation 43.53  
Snow  
Snow 0.00 in - - ()
Month to date snowfall  
Since 1 July snowfall  
Snow Depth -    
Sea Level Pressure  
Sea Level Pressure 29.91 in    
Wind  
Wind Speed 7 mph (SSW)    
Max Wind Speed 14 mph    
Max Gust Speed 20 mph    
Visibility 9 miles    
Events Rain    
T = Trace of Precipitation, MM = Missing Value Source: NWS Daily Summary

Daily Weather History Graph

Daily Weather History Graph

Search for Another Location

Airport or City:

Trip Planner

Search our weather history database for the weather conditions in past years. The results will help you decide how hot, cold, wet, or windy it might be!

Date:

Astronomy

Dec. 15, 2012 Rise Set
Actual Time 7:13 AM CST 5:18 PM CST
Civil Twilight 6:46 AM CST 5:45 PM CST
Nautical Twilight 6:16 AM CST 6:16 PM CST
Astronomical Twilight 5:46 AM CST 6:45 PM CST
Moon 9:13 AM CST (12/15) 8:16 PM CST (12/15)
Length of Visible Light 10h 58m
Length of Day
10h 04m
Waxing Crescent, 8% of the Moon is Illuminated
Dec 15
Waxing Crescent
Dec 19
First Quarter
Dec 28
Full
Jan 4
Last Quarter
Jan 11
New

Hourly Weather History & Observations

Time (CST) Temp. Dew Point Humidity Pressure Visibility Wind Dir Wind Speed Gust Speed Precip Events Conditions
12:15 AM 59.9 °F 59.0 °F 97% 29.94 in 7.0 mi SSE 10.4 mph - N/A   Overcast
1:15 AM 60.8 °F 59.9 °F 97% 29.93 in 7.0 mi South 10.4 mph - N/A   Overcast
1:35 AM 60.8 °F 60.1 °F 97% 29.93 in 5.0 mi South 10.4 mph 16.1 mph N/A   Overcast
1:55 AM 61.2 °F 60.8 °F 99% 29.94 in 7.0 mi South 6.9 mph - N/A   Overcast
2:15 AM 61.2 °F 60.8 °F 99% 29.94 in 7.0 mi South 6.9 mph - N/A   Overcast
2:35 AM 61.2 °F 60.8 °F 99% 29.93 in 4.0 mi South 6.9 mph - N/A Rain Rain
2:55 AM 61.0 °F 60.8 °F 99% 29.90 in 4.0 mi SSE 13.8 mph - N/A   Light Drizzle
3:15 AM 61.7 °F 61.5 °F 99% 29.90 in 5.0 mi South 9.2 mph 18.4 mph N/A   Overcast
3:35 AM 62.1 °F 61.9 °F 99% 29.92 in 5.0 mi South 10.4 mph 18.4 mph N/A   Overcast
3:55 AM 62.8 °F 62.6 °F 99% 29.91 in 7.0 mi South 12.7 mph 18.4 mph N/A   Overcast
4:15 AM 63.5 °F 63.0 °F 98% 29.91 in 7.0 mi South 9.2 mph - N/A   Overcast
4:35 AM 63.5 °F 63.0 °F 98% 29.91 in 7.0 mi South 11.5 mph 17.3 mph N/A   Overcast
4:55 AM 63.9 °F 63.0 °F 97% 29.90 in 7.0 mi South 13.8 mph 18.4 mph N/A   Overcast
5:15 AM 64.4 °F 63.1 °F 96% 29.90 in 10.0 mi South 12.7 mph 19.6 mph N/A   Overcast
5:35 AM 63.5 °F 62.8 °F 97% 29.92 in 2.5 mi West 5.8 mph - 0.22 in Rain Heavy Rain
5:55 AM 63.1 °F 62.6 °F 98% 29.93 in 5.0 mi West 5.8 mph - 0.29 in Rain Rain
6:15 AM 62.6 °F 62.1 °F 98% 29.93 in 7.0 mi West 8.1 mph - N/A   Light Drizzle
6:35 AM 61.7 °F 61.0 °F 97% 29.93 in 10.0 mi Calm Calm - N/A Rain Light Rain
6:55 AM 61.2 °F 59.5 °F 94% 29.94 in 10.0 mi South 4.6 mph - N/A   Overcast
7:15 AM 61.2 °F 60.1 °F 96% 29.94 in 10.0 mi SSW 4.6 mph - N/A   Overcast
7:35 AM 60.4 °F 59.9 °F 98% 29.97 in 10.0 mi SW 4.6 mph - N/A   Drizzle
7:55 AM 59.7 °F 56.5 °F 89% 29.97 in 5.0 mi WSW 6.9 mph 17.3 mph 0.02 in Rain Rain
8:15 AM 58.3 °F 54.9 °F 88% 29.96 in 10.0 mi SSE 3.5 mph - N/A   Overcast
8:55 AM 58.6 °F 55.6 °F 90% 29.96 in 10.0 mi South 3.5 mph - N/A   Overcast
9:15 AM 59.2 °F 56.1 °F 90% 29.96 in 10.0 mi South 4.6 mph - N/A   Scattered Clouds
9:35 AM 59.9 °F 55.9 °F 87% 29.96 in 10.0 mi South 4.6 mph - N/A   Scattered Clouds
9:55 AM 61.2 °F 55.9 °F 83% 29.98 in 10.0 mi South 5.8 mph - N/A   Scattered Clouds
10:15 AM 61.5 °F 56.3 °F 83% 29.97 in 10.0 mi Calm Calm - N/A   Mostly Cloudy
10:35 AM 62.1 °F 57.0 °F 84% 29.98 in 10.0 mi SW 3.5 mph - N/A   Overcast
10:55 AM 62.8 °F 54.5 °F 74% 29.98 in 10.0 mi Calm Calm - N/A   Overcast
11:35 AM 65.5 °F 51.3 °F 60% 29.96 in 10.0 mi SW 6.9 mph - N/A   Mostly Cloudy
12:15 PM 66.2 °F 50.0 °F 56% 29.94 in 10.0 mi SW 5.8 mph - N/A   Scattered Clouds
12:35 PM 66.6 °F 51.3 °F 58% 29.93 in 10.0 mi SW 4.6 mph - N/A   Scattered Clouds
12:55 PM 67.5 °F 51.4 °F 56% 29.91 in 10.0 mi SW 4.6 mph - N/A   Clear
1:15 PM 68.0 °F 52.0 °F 56% 29.90 in 10.0 mi WSW 4.6 mph - N/A   Clear
1:35 PM 68.0 °F 51.4 °F 55% 29.91 in 10.0 mi SW 6.9 mph - N/A   Clear
1:55 PM 67.6 °F 50.5 °F 54% 29.90 in 10.0 mi WSW 4.6 mph - N/A   Clear
2:15 PM 67.3 °F 52.0 °F 58% 29.88 in 10.0 mi WSW 4.6 mph - N/A   Clear
2:35 PM 67.8 °F 51.3 °F 55% 29.89 in 10.0 mi WSW 5.8 mph - N/A   Scattered Clouds
2:55 PM 67.1 °F 50.9 °F 56% 29.88 in 10.0 mi West 3.5 mph - N/A   Mostly Cloudy
3:15 PM 67.3 °F 51.1 °F 56% 29.88 in 10.0 mi WSW 4.6 mph - N/A   Overcast
3:35 PM 67.1 °F 50.4 °F 55% 29.89 in 10.0 mi WSW 4.6 mph - N/A   Scattered Clouds
3:55 PM 66.4 °F 50.2 °F 56% 29.88 in 10.0 mi Calm Calm - N/A   Mostly Cloudy
4:15 PM 66.2 °F 49.6 °F 55% 29.88 in 10.0 mi West 3.5 mph - N/A   Scattered Clouds
4:35 PM 65.8 °F 49.6 °F 56% 29.89 in 10.0 mi Calm Calm - N/A   Clear
4:55 PM 64.9 °F 49.8 °F 58% 29.89 in 10.0 mi Calm Calm - N/A   Mostly Cloudy
5:15 PM 64.2 °F 50.5 °F 61% 29.89 in 10.0 mi Calm Calm - N/A   Scattered Clouds
5:35 PM 63.5 °F 50.7 °F 63% 29.89 in 10.0 mi Calm Calm - N/A   Clear
5:55 PM 61.9 °F 51.6 °F 69% 29.88 in 10.0 mi Calm Calm - N/A   Clear
6:15 PM 62.1 °F 50.9 °F 67% 29.89 in 10.0 mi Calm Calm - N/A   Clear
6:35 PM 61.5 °F 51.6 °F 70% 29.88 in 10.0 mi Calm Calm - N/A   Clear
6:55 PM 62.6 °F 50.9 °F 66% 29.89 in 10.0 mi Calm Calm - N/A   Clear
7:15 PM 60.1 °F 52.2 °F 75% 29.88 in 10.0 mi Calm Calm - N/A   Clear
7:35 PM 59.0 °F 52.7 °F 80% 29.88 in 10.0 mi SSE 3.5 mph - N/A   Clear
7:55 PM 59.2 °F 53.1 °F 80% 29.89 in 10.0 mi Calm Calm - N/A   Clear
8:15 PM 61.0 °F 51.8 °F 72% 29.89 in 10.0 mi SSW 3.5 mph - N/A   Clear
8:35 PM 60.8 °F 51.8 °F 72% 29.89 in 10.0 mi South 3.5 mph - N/A   Clear
8:55 PM 60.4 °F 52.7 °F 76% 29.90 in 10.0 mi SW 3.5 mph - N/A   Clear
9:15 PM 60.3 °F 53.1 °F 77% 29.89 in 10.0 mi Calm Calm - N/A   Clear
9:35 PM 60.3 °F 53.2 °F 78% 29.89 in 10.0 mi SW 3.5 mph - N/A   Clear
9:55 PM 61.0 °F 52.2 °F 73% 29.89 in 10.0 mi South 3.5 mph - N/A   Clear
10:15 PM 60.8 °F 52.7 °F 75% 29.90 in 10.0 mi SSW 3.5 mph - N/A   Scattered Clouds
10:35 PM 61.0 °F 52.9 °F 75% 29.89 in 10.0 mi South 4.6 mph - N/A   Scattered Clouds
10:55 PM 60.8 °F 53.1 °F 76% 29.89 in 10.0 mi South 6.9 mph - N/A   Clear
11:55 PM 60.8 °F 54.0 °F 78% 29.89 in 10.0 mi SSW 4.6 mph - N/A   Overcast